Wales, AK

4:48 PM AKST on February 11, 2016 (GMT -0900)
Tin City LRRS

Weather History for PATC - July, 2013

Change the Weather History Date:

Thursday, July 4, 2013

  Actual Average Record
Temperature  
Mean Temperature 40 °F -  
Max Temperature 41 °F 46 °F 71 °F (2007)
Min Temperature 40 °F 39 °F 34 °F (2011)
Degree Days  
Heating Degree Days 24    
Moisture  
Dew Point 41 °F    
Average Humidity 100    
Maximum Humidity 100    
Minimum Humidity 99    
Precipitation  
Precipitation 0.19 in - - ()
Sea Level Pressure  
Sea Level Pressure 29.70 in    
Wind  
Wind Speed 15 mph (South)    
Max Wind Speed 21 mph    
Max Gust Speed -    
Visibility 5 miles    
Events Fog , Rain    
Averages and records for this station are not official NWS values.
T = Trace of Precipitation, MM = Missing Value Source: NWS Daily Summary

Daily Weather History Graph

Daily Weather History Graph

Search for Another Location

Airport or City:

Trip Planner

Search our weather history database for the weather conditions in past years. The results will help you decide how hot, cold, wet, or windy it might be!

Date:

Astronomy

Jul. 04, 2013 Rise Set
Actual Time 4:17 AM AKDT 2:11 AM AKDT
Civil Twilight Sun does not rise Sun does not rise
Nautical Twilight Sun does not rise Sun does not rise
Astronomical Twilight Sun does not rise Sun does not rise
Moon 3:01 AM AKDT (7/4) 10:23 PM AKDT (7/4)
Length of Visible Light 24h 00m
Length of Day
21h 54m
Waning Crescent, 10% of the Moon is Illuminated
Jul 4
Waning Crescent
Jul 7
New
Jul 15
First Quarter
Jul 22
Full
Jul 29
Last Quarter

Hourly Weather History & Observations

Time (AKDT) Temp. Windchill Dew Point Humidity Pressure Visibility Wind Dir Wind Speed Gust Speed Precip Events Conditions
12:55 AM 41.7 °F 34.1 °F 41.4 °F 99% 29.67 in 10.0 mi South 15.0 mph - N/A   Overcast
1:08 AM 41.0 °F 33.1 °F 41.0 °F 100% 29.67 in 2.0 mi South 15.0 mph - N/A   Mostly Cloudy
1:28 AM 41.0 °F 32.8 °F 41.0 °F 100% 29.67 in 1.2 mi South 16.1 mph - N/A Rain Light Rain Showers
1:48 AM 41.0 °F 33.1 °F 41.0 °F 100% 29.67 in 10.0 mi South 15.0 mph - N/A   Mostly Cloudy
1:55 AM 41.4 °F 33.6 °F 41.5 °F 100% 29.67 in 10.0 mi South 15.0 mph - N/A   Mostly Cloudy
2:48 AM 41.0 °F 33.1 °F 41.0 °F 100% 29.67 in 10.0 mi South 15.0 mph - N/A   Light Drizzle
2:55 AM 41.5 °F 34.6 °F 41.7 °F 100% 29.67 in 10.0 mi South 12.7 mph - N/A   Light Drizzle
3:08 AM 41.0 °F 32.2 °F 41.0 °F 100% 29.67 in 0.2 mi South 18.4 mph - N/A   Light Drizzle
3:48 AM - - - N/A% 29.67 in 0.8 mi South 15.0 mph - N/A   Light Drizzle
3:55 AM - - - N/A% 29.66 in 0.2 mi South 15.0 mph - N/A Fog , Rain Light Rain
4:28 AM 41.0 °F 32.8 °F 41.0 °F 100% 29.66 in 0.5 mi South 16.1 mph - N/A Fog , Rain Light Rain
4:48 AM 41.0 °F 32.8 °F 41.0 °F 100% 29.67 in 8.0 mi South 16.1 mph - N/A Rain Light Rain Showers
4:55 AM 41.0 °F 33.5 °F 41.4 °F 100% 29.67 in 10.0 mi South 13.8 mph - N/A Rain Light Rain Showers
5:08 AM 41.0 °F 33.5 °F 41.0 °F 100% 29.67 in 10.0 mi South 13.8 mph - N/A   Overcast
5:48 AM 41.0 °F 34.3 °F 41.0 °F 100% 29.67 in 10.0 mi South 11.5 mph - N/A   Light Drizzle
5:55 AM 41.0 °F 34.3 °F 41.2 °F 100% 29.67 in 10.0 mi South 11.5 mph - N/A   Light Drizzle
6:48 AM 41.0 °F 34.3 °F 41.0 °F 100% 29.66 in 10.0 mi South 11.5 mph - N/A   Overcast
6:55 AM 41.0 °F 34.3 °F 41.0 °F 100% 29.66 in 10.0 mi South 11.5 mph - N/A   Overcast
7:55 AM 41.4 °F 35.2 °F 41.0 °F 99% 29.66 in 10.0 mi South 10.4 mph - N/A   Overcast
8:55 AM 41.4 °F 34.7 °F 41.0 °F 99% 29.67 in 10.0 mi South 11.5 mph - N/A   Overcast
9:55 AM 41.5 °F 35.4 °F 41.2 °F 99% 29.66 in 10.0 mi South 10.4 mph - N/A   Overcast
10:48 AM 41.0 °F 33.1 °F 41.0 °F 100% 29.67 in 0.2 mi South 15.0 mph - N/A Fog , Rain Light Rain Showers
10:55 AM 41.4 °F 34.0 °F 41.7 °F 100% 29.67 in 0.2 mi South 13.8 mph - N/A Fog Fog
11:55 AM 41.0 °F 34.7 °F 41.4 °F 100% 29.68 in 0.2 mi SSW 10.4 mph - N/A Fog , Rain Light Rain
12:08 PM 41.0 °F 34.3 °F 41.0 °F 100% 29.68 in 0.5 mi SSW 11.5 mph - N/A Rain Light Rain
12:28 PM 41.0 °F 33.9 °F 41.0 °F 100% 29.68 in 0.2 mi SSW 12.7 mph - N/A Fog , Rain Light Rain Showers
12:48 PM 41.0 °F 34.7 °F 41.0 °F 100% 29.68 in 0.2 mi SSW 10.4 mph - N/A Fog Fog
12:55 PM 40.8 °F 34.1 °F 41.2 °F 100% 29.68 in 0.2 mi SSW 11.5 mph - N/A Fog Fog
1:48 PM 41.0 °F 33.9 °F 41.0 °F 100% 29.70 in 2.5 mi SW 12.7 mph - N/A Fog Patches of Fog
1:55 PM 40.3 °F 33.0 °F 40.6 °F 100% 29.70 in 10.0 mi SW 12.7 mph - N/A Fog Patches of Fog
2:55 PM 40.3 °F 32.6 °F 40.3 °F 100% 29.70 in 10.0 mi SSW 13.8 mph - N/A   Overcast
3:55 PM 40.3 °F 32.2 °F 40.5 °F 100% 29.71 in 10.0 mi SSW 15.0 mph - N/A   Mostly Cloudy
4:55 PM 40.6 °F 32.3 °F 40.6 °F 100% 29.71 in 10.0 mi SSW 16.1 mph - N/A   Mostly Cloudy
5:48 PM 41.0 °F 32.8 °F 41.0 °F 100% 29.72 in 1.2 mi SSW 16.1 mph - N/A Rain Light Rain
5:55 PM 40.6 °F 32.0 °F 40.8 °F 100% 29.72 in 1.2 mi SSW 17.3 mph - 0.00 in Rain Light Rain
6:08 PM 41.0 °F 32.2 °F 41.0 °F 100% 29.73 in 6.0 mi SSW 18.4 mph - N/A Rain Light Rain Showers
6:55 PM 41.0 °F 32.8 °F 41.4 °F 100% 29.73 in 2.5 mi South 16.1 mph - N/A Rain Light Rain Showers
7:08 PM 41.0 °F 32.8 °F 41.0 °F 100% 29.73 in 6.0 mi South 16.1 mph - N/A Rain Light Rain
7:28 PM 41.0 °F 32.8 °F 41.0 °F 100% 29.73 in 0.8 mi South 16.1 mph - N/A Rain Light Rain
7:48 PM 41.0 °F 32.8 °F 41.0 °F 100% 29.73 in 0.2 mi South 16.1 mph - N/A Fog , Rain Light Rain
7:55 PM 41.0 °F 32.5 °F 41.4 °F 100% 29.73 in 0.2 mi South 17.3 mph - 0.02 in Fog , Rain Light Rain
8:28 PM 41.0 °F 31.9 °F 41.0 °F 100% 29.73 in 4.0 mi South 19.6 mph - N/A Rain Light Rain
8:55 PM 41.0 °F 32.2 °F 41.5 °F 100% 29.74 in 4.0 mi South 18.4 mph - 0.03 in Rain Light Rain
9:55 PM 41.2 °F 32.4 °F 41.7 °F 100% 29.74 in 2.5 mi South 18.4 mph - 0.04 in Rain Light Rain
10:28 PM 41.0 °F 31.6 °F 41.0 °F 100% 29.75 in 2.0 mi South 20.7 mph - N/A Rain Light Rain
10:48 PM 41.0 °F 32.2 °F 41.0 °F 100% 29.75 in 2.5 mi South 18.4 mph - N/A Rain Light Rain
10:55 PM 41.0 °F 31.6 °F 41.4 °F 100% 29.75 in 4.0 mi South 20.7 mph - 0.06 in Rain Light Rain
11:08 PM 41.0 °F 31.6 °F 41.0 °F 100% 29.75 in 2.5 mi South 20.7 mph - N/A Rain Light Rain
11:28 PM 41.0 °F 31.9 °F 41.0 °F 100% 29.75 in 5.0 mi SSW 19.6 mph - N/A Rain Light Rain
11:55 PM 41.0 °F 32.2 °F 41.4 °F 100% 29.75 in 7.0 mi South 18.4 mph - 0.04 in Rain Light Rain